Location: Ostrava
(49.8330°N, 18.2830°E)
Time: 07:07:52
(UTC+01:00)

Daily predictions for brighter satellites

Satellite Brightness Start Highest point End
(mag) Time Altitude Azimuth Time Altitude Azimuth Time Altitude Azimuth
Cosmos 1975 Rocket 4.1 16:16:00 10° SE 16:19:35 26° E 16:23:12 10° NNE
Cosmos 1782 3.2 16:16:08 10° SSW 16:20:09 69° WNW 16:24:12 10° N
Cosmos 2251 Rocket 4.2 16:15:37 10° N 16:20:30 33° NE 16:25:19 10° ESE
CZ-3A R/B 3.4 16:28:11 10° SSW 16:32:31 58° SE 16:53:22 10° ENE
CZ-2C R/B 3.7 16:28:15 10° NNE 16:32:40 59° ESE 16:37:04 10° S
Cosmos 2181 Rocket 4.4 16:26:39 10° SSE 16:32:40 47° E 16:38:47 10° NNE
MTI 3.9 16:30:01 10° NNE 16:33:20 89° WNW 16:36:39 10° SSW
Cosmos 1602 4.1 16:32:49 10° NNW 16:36:46 73° W 16:40:39 10° S
Cosmos 2263 Rocket 2.4 16:31:25 10° SW 16:37:01 76° WNW 16:42:43 10° NNE
Cosmos 1300 Rocket 4.2 16:33:22 10° NNW 16:37:40 60° W 16:41:55 10° S
Genesis I 4.4 16:34:29 10° NNW 16:37:48 25° NNE 16:41:04 10° E
Cosmos 158 Rocket 4.0 16:32:59 10° NNW 16:38:25 78° ENE 16:43:43 10° SSE
IRS-1A Rocket 4.3 16:32:59 10° SSE 16:38:29 89° WSW 16:44:04 10° NNW
AQUARIUS 4.3 16:36:38 10° SE 16:40:58 50° ENE 16:45:20 10° N
Cosmos 1295 Rocket 4.5 16:35:54 10° N 16:42:02 65° ENE 16:48:05 10° SSE
Cosmos 1484 Rocket 3.9 16:41:05 10° ESE 16:43:55 21° ENE 16:46:44 10° NNE
YAOGAN 1 2.8 16:40:05 10° SE 16:44:15 49° ENE 16:48:27 10° N
CZ-2C R/B 2.6 16:39:27 10° SSE 16:44:20 57° ENE 16:49:23 10° N
Nadezhda 1 Rocket 4.2 16:38:25 10° SSW 16:44:28 73° W 16:50:39 10° N
Meteor 1-11 Rocket 4.2 16:39:37 10° NNW 16:45:08 65° W 16:50:35 10° S
Cosmos 1238 Rocket 3.9 16:43:30 10° ESE 16:45:12 14° E 16:45:57 13° ENE
ERBS 3.6 16:42:58 10° WNW 16:46:01 29° NNW 16:48:42 12° NE
ISS -1.4 16:43:50 10° S 16:46:19 20° SE 16:48:37 11° E
Cosmos 2341 Rocket 4.0 16:43:40 10° N 16:49:55 89° W 16:56:09 10° S
EO 1 Del DPAF 4.2 16:48:05 10° N 16:51:52 50° WNW 16:55:37 10° SW
Cosmos 1378 Rocket 3.5 16:48:51 10° S 16:53:10 87° E 16:57:31 10° N
SMAP 3.0 16:50:54 10° SSE 16:55:32 68° ENE 17:00:11 10° N
USA 234 3.4 16:51:36 12° ENE 16:57:45 65° SE 17:04:14 10° SW
Cosmos 1500 4.4 16:55:46 10° NNE 16:58:45 21° ENE 17:01:45 10° ESE
GEOS 3 Rocket 3.6 16:55:41 10° ESE 17:00:42 58° NE 17:05:45 10° NW
Cosmos 1455 Rocket 3.4 16:56:54 10° N 17:01:07 44° ENE 17:05:20 10° SSE
NOSS 3-4 (A) 4.4 16:55:53 10° NW 17:01:59 34° NNE 17:07:09 15° E
NOSS 3-4 (C) 4.4 16:55:59 10° NW 17:02:05 34° NNE 17:07:13 15° E
Cosmos 1844 Rocket 3.0 16:57:49 10° S 17:03:07 46° ESE 17:08:00 12° NE
SL-27 R/B 2.4 16:59:33 10° NNW 17:03:15 73° ENE 17:06:54 10° SSE
Cosmos 1633 4.2 17:00:11 10° NNW 17:03:33 37° W 17:06:52 10° SSW
SL-16 R/B 4.3 17:00:51 10° N 17:05:51 27° NW 17:10:51 10° WSW
MSX 3.8 17:00:24 10° SSE 17:06:04 62° ENE 17:11:45 10° N
Cosmos 1536 3.6 17:02:46 10° NNW 17:06:46 55° W 17:10:44 10° S
ATLAS CENTAUR R/B 3.6 17:05:14 10° WNW 17:08:32 19° NNW 17:11:41 10° NNE
PAYLOAD A 4.5 17:05:51 10° S 17:10:36 62° W 17:15:35 10° NNW
Okean 1 4.4 17:07:25 10° SE 17:10:44 25° E 17:12:12 20° ENE
Meteor 1-27 Rocket 4.5 17:07:18 10° SSW 17:13:01 57° WNW 17:18:41 10° N
SPOT 3 Rocket 3.7 17:10:12 10° SSE 17:15:24 78° WSW 17:20:37 10° NNW
Cosmos 1844 4.0 17:10:29 10° S 17:15:41 43° ESE 17:19:36 17° NE
MONITOR-E 4.3 17:13:31 10° SSE 17:16:38 51° ENE 17:19:45 10° N
Meteor 1-12 Rocket 4.3 17:12:17 10° N 17:18:00 62° ENE 17:23:48 10° SSE
ATLAS 2AS CENTAUR R/B 3.2 17:09:56 10° NW 17:18:07 82° SW 17:25:49 10° SE
CORIOLIS 4.2 17:15:15 10° SSE 17:20:40 83° WSW 17:26:07 10° NNW
Cosmos 864 Rocket 4.4 17:17:07 10° N 17:23:24 73° ENE 17:29:42 10° SSE
ALOS 4.4 17:27:16 11° NNE 17:27:16 11° NNE 17:27:37 10° NNE
Cosmos 1812 3.0 17:21:45 10° SSE 17:25:26 45° E 17:27:43 21° NNE
Cosmos 1346 Rocket 4.1 17:26:43 10° SE 17:28:50 21° ESE 17:28:50 21° ESE
USA 32 4.0 17:25:36 10° S 17:30:49 84° E 17:36:05 10° N
Abrixas 2.6 17:27:53 10° W 17:30:51 66° S 17:31:41 41° ESE
Cosmos 372 Rocket 4.1 17:25:43 10° SSW 17:30:59 76° WNW 17:36:07 11° NNE
Cosmos 2278 Rocket 2.7 17:27:54 10° S 17:33:03 38° ESE 17:35:28 26° ENE
IDEFIX/ARIANE 42P 3.1 17:28:08 10° S 17:33:17 60° W 17:38:27 10° NNW
CZ-4 R/B 3.2 17:35:53 10° SSW 17:39:43 34° W 17:43:32 10° NNW
Cosmos 494 Rocket 4.3 17:39:34 10° NNW 17:44:47 70° WSW 17:50:00 10° SSE
Cosmos 1975 2.7 17:44:32 10° N 17:48:39 87° E 17:52:42 10° S
Thor Agena Rocket 3.9 17:43:35 10° N 17:48:44 67° WNW 17:53:55 10° SSW
COSMO-SKYMED 1 2.6 17:46:58 30° NE 17:48:53 56° E 17:53:09 10° S
COSMOS 2487 2.4 17:45:45 10° NNW 17:49:19 58° ENE 17:49:23 58° ENE
Cosmos 1544 Rocket 4.5 17:45:00 10° NNW 17:49:19 51° W 17:53:38 10° S
ASTRO F (AKARI) 4.3 17:51:05 43° N 17:51:59 76° WNW 17:55:06 10° SSW
Cosmos 2082 Rocket 2.2 17:48:12 10° NNW 17:53:47 58° NE 17:57:15 23° SE
Meteor 2-21 Rocket 4.4 17:49:25 10° N 17:55:37 64° ENE 18:01:44 10° SSE
Cosmos 1833 Rocket 2.7 17:52:40 10° NNW 17:58:13 54° NE 18:00:30 33° ESE
Meteor 2-16 Rocket 4.4 17:54:46 10° N 18:00:47 58° ENE 18:06:46 10° SSE
BREEZE-M DEB (TANK) 3.0 18:01:04 10° WSW 18:02:26 35° SW 18:02:26 35° SW
NOAA 12 3.9 18:03:35 10° SSE 18:08:51 77° ENE 18:14:09 10° NNW
BREEZE-M DEB (TANK) 4.3 17:42:07 10° W 18:09:06 76° NNW 18:12:02 38° ENE
METEOR-M 4.0 18:06:58 10° SSE 18:12:16 71° ENE 18:17:37 10° N
CZ-3B DEB 2.7 18:08:34 10° SW 18:13:07 71° SE 18:17:21 35° ENE
Cosmos 1536 Rocket 3.8 18:09:16 10° SSW 18:13:42 69° WNW 18:16:37 21° N
BREEZE-M R/B 4.1 18:05:53 10° SW 18:14:32 47° SSE 18:15:32 42° SE
Genesis I 3.6 18:11:54 10° NW 18:15:49 61° SW 18:16:35 48° S
BREEZE M DEB (TANK) 3.2 18:14:43 10° W 18:18:09 73° SSW 18:21:01 36° ESE
Cosmos 1484 Rocket 4.1 18:14:40 10° SSW 18:18:11 38° W 18:21:43 10° NNW
Cosmos 1535 Rocket 4.4 18:11:55 10° N 18:18:16 67° ENE 18:24:30 10° SSE
DMSP B5D1-3 4.4 18:18:07 36° NNE 18:20:17 82° ESE 18:25:26 10° SSW
Cosmos 1934 Rocket 3.9 18:15:41 10° N 18:21:46 58° ENE 18:24:19 35° SE
Cosmos 2263 Rocket 4.3 18:17:54 10° W 18:21:57 20° NW 18:25:53 11° N
ISS -1.9 18:19:08 10° WSW 18:21:18 38° WSW 18:21:18 38° WSW
Timation 2 Rocket 4.2 18:17:14 10° NNW 18:24:03 83° WSW 18:30:57 10° SSE
Cosmos 1238 Rocket 4.2 18:22:16 10° SW 18:24:48 26° WNW 18:25:11 25° WNW
Cosmos 2239 Rocket 4.4 18:29:35 10° N 18:35:53 89° E 18:42:03 10° S
Resurs 01 Rocket 3.9 18:39:42 15° N 18:39:42 15° N 18:40:27 10° N
SKYMED 2 4.3 18:35:36 36° NNW 18:36:57 50° WNW 18:41:09 10° SW
USA 234 3.5 18:38:57 46° NE 18:40:47 62° NNW 18:47:12 10° W
Cosmos 1821 Rocket 3.9 18:38:33 10° N 18:44:42 83° W 18:50:47 10° S
Cosmos 1844 Rocket 3.9 18:41:58 10° WSW 18:47:09 37° NW 18:49:41 25° N
ATLAS CENTAUR R/B 4.2 18:47:47 10° NNW 18:48:16 11° NNW 18:48:16 11° NNW
NOSS 3-4 (A) 3.6 18:46:54 10° NW 18:53:50 83° NE 18:54:38 72° ESE
NOSS 3-4 (C) 3.6 18:47:01 10° NW 18:53:57 83° NE 18:54:42 73° ESE
Cosmos 2297 4.3 18:55:26 10° SSW 18:59:22 47° SSW 18:59:22 47° SSW
NOSS 3-3 (A) 4.0 18:57:52 10° SW 19:04:12 79° NW 19:04:29 78° NNW
NOSS 3-3 (C) 4.0 18:57:59 10° SW 19:04:18 80° NW 19:04:33 78° NNW
Cosmos 2278 Rocket 3.1 19:11:41 10° SW 19:17:05 44° NW 19:17:21 44° NW
Cosmos 2082 Rocket 4.0 19:32:49 10° NW 19:37:32 28° WSW 19:39:14 24° SW
Cosmos 1833 Rocket 4.3 19:37:03 10° NW 19:41:53 30° WSW 19:42:16 29° WSW
FALCON 9 R/B 4.5 19:43:20 10° WSW 19:52:36 24° SSW 19:52:36 24° SSW
CZ-3B DEB 4.2 20:41:48 10° W 20:46:09 47° WNW 20:46:09 47° WNW
